Regional Weather Roundup
Issued by NWS

Home | Current Version | Previous Version | Text Only | Print | Product List | Glossary Off
Versions: 1 2 3 4 5 6 7 8 9 10 11 12 13 14 15 16 17 18 19 20 21 22 23 24 25 26 27 28 29 30 31 32 33 34 35 36 37 38 39 40 41 42 43 44 45 46 47 48 49 50

000
ASUS43 KLOT 110508
RWRIL

ILLINOIS REGIONAL WEATHER ROUNDUP
NATIONAL WEATHER SERVICE CHICAGO/ROMEOVILLE IL
1100 PM CST SAT DEC 10 2016

NOTE: "FAIR" INDICATES FEW OR NO CLOUDS BELOW 12,000 FEET WITH NO
SIGNIFICANT WEATHER AND/OR OBSTRUCTIONS TO VISIBILITY.

* THESE STATIONS ARE NOT UNDER NWS QUALITY CONTROL. THEY ALSO MAY NOT
  REPORT WEATHER SUCH AS PRECIPITATION OR FOG.

ILZ001-002-007-009-015-016-024-110600-
NORTHWEST ILLINOIS

CITY           SKY/WX    TMP DP  RH WIND       PRES   REMARKS
MOLINE         CLOUDY    26  19  74 SE12      30.18F WCI  16
STERLING*      FLURRIES  24  21  88 SE10      30.22F WCI  14
SAVANNA*       FLURRIES  24  20  85 SE10      30.21F WCI  13
$$

ILZ003-004-008-010-011-017-018-110600-
NORTH CENTRAL ILLINOIS

CITY           SKY/WX    TMP DP  RH WIND       PRES   REMARKS
ROCKFORD       FLURRIES  23  19  85 SE12      30.26F WCI  12
FREEPORT*      LGT SNOW  22  19  90 SE12      30.24F WCI  10
ROCHELLE*      CLOUDY    23  21  91 SE16      30.25F WCI  10
DE KALB*       CLOUDY    22  21  94 SE14      30.25F WCI   9
$$

ILZ005-006-012>014-019>023-110600-
NORTHEAST ILLINOIS

CITY           SKY/WX    TMP DP  RH WIND       PRES   REMARKS
CHICAGO-OHARE  LGT SNOW  23  20  88 S8        30.29S FOG     WCI  14
CHICAGO-MIDWAY FLURRIES  24  19  81 S8        30.31S WCI  15
AURORA         CLOUDY    24  20  84 SE12      30.28S WCI  13
LANSING*       LGT SNOW  24  23  95 S7        30.32S WCI  16
JOLIET*        CLOUDY    26  22  87 SE8       30.30F WCI  17
WAUKEGAN       LGT SNOW  23  19  85 S7        30.29S FOG     WCI  15
DUPAGE AIRPORT CLOUDY    23  19  85 SE12      30.28S WCI  12
KANKAKEE*      LGT SNOW  25  22  90 SE10      30.31F WCI  14
WHEELING       LGT SNOW  22  19  89 S7        30.32R FOG     WCI  13
MORRIS*        MIX PCPN  25  22  87 SE12      30.27F WCI  14
ROMEOVILLE*    MIX PCPN  24  23  97 SE12      30.29F WCI  13
NORTHERLY ISL    N/A     23  21  92 S10         N/A  WCI  13
$$

LMZ740>746-110600-
SOUTHERN LAKE MICHIGAN

STATION/POSITION SKY/WX   TEMP    WIND        PRES    VSBY  WAVE
                          AIR SEA DIR/SP/G                  HT/PER
                          (F)     (DEG/KT/KT) (MB)    (MI)  (FT/S)
BURNHAM HARBOR             24     180/  6/ 11   N/A
CALUMET HARBOR             24     160/ 10/ 13 1026.0S
BURNS HARBOR               24     170/ 10/ 13 1027.4F
$$

ILZ025>027-034>036-040-047-049-050-058-095>099-110600-
WEST-CENTRAL ILLINOIS

CITY           SKY/WX    TMP DP  RH WIND       PRES   REMARKS
QUINCY         CLOUDY    32  20  61 SE13      30.13F WCI  22
GALESBURG*     CLOUDY    27  22  79 SE9       30.15F WCI  18
MACOMB*        CLOUDY    30  22  72 SE15      30.18S WCI  19
JACKSONVILLE*  CLOUDY    32  19  59 S10G20    30.18F WCI  24
PITTSFIELD*    CLOUDY    32  22  65 SE10      30.16F WCI  24
$$

ILZ028>032-037-038-041>044-048-051>054-059>061-110600-
CENTRAL ILLINOIS

CITY           SKY/WX    TMP DP  RH WIND       PRES   REMARKS
PONTIAC        CLOUDY    26  25  96 SE17      30.27F WCI  13
BLOOMINGTON    CLOUDY    25  23  92 SE17      30.23F WCI  12
DECATUR        CLOUDY    29  19  66 S15       30.25F WCI  18
PEORIA         CLOUDY    28  22  78 SE12G20   30.20F WCI  18
LACON*         CLOUDY    26  23  89 SE14      30.21F WCI  14
LINCOLN*       CLOUDY    31  22  70 SE14      30.22F WCI  20
SPRINGFIELD    CLOUDY    33  18  53 SE16      30.21F WCI  23
TAYLORVILLE    CLOUDY    31  20  64 SE15      30.23F WCI  20
$$

ILZ033-039-045-046-055>057-062-063-110600-
EAST-CENTRAL ILLINOIS

CITY           SKY/WX    TMP DP  RH WIND       PRES   REMARKS
CHAMPAIGN      CLOUDY    26  22  84 SE18      30.27F WCI  13
RANTOUL*       LGT SNOW  27  25  93 SE15      30.28F WCI  15
MATTOON        CLOUDY    29  18  63 SE13      30.28F WCI  19
PARIS*         CLOUDY    27  23  87 SE9       30.33F WCI  17
$$

ILZ079-100>102-110600-
SOUTHWEST ILLINOIS

CITY           SKY/WX    TMP DP  RH WIND       PRES   REMARKS
ALTON          CLOUDY    34  20  57 SE10      30.22F WCI  26
BELLEVILLE     CLOUDY    35  21  57 SE9       30.22F WCI  27
CAHOKIA*       CLOUDY    35  20  54 SE12      30.21F WCI  27
SPARTA*        CLOUDY    35  19  50 S12       30.26S WCI  27
$$

ILZ064>066-069>071-074>076-080>082-084>086-088>090-092>094-110600-
SOUTH-CENTRAL ILLINOIS

CITY           SKY/WX    TMP DP  RH WIND       PRES   REMARKS
CARBONDALE     CLOUDY    36  18  48 S10       30.28F WCI  28
CAIRO*         CLOUDY    37  20  51 SE8       30.31F WCI  30
EFFINGHAM*     CLOUDY    32  22  69 E7        30.32S WCI  25
MARION         CLOUDY    37  18  44 S9        30.30F WCI  31
CENTRALIA*     CLOUDY    33  22  62 SE9       30.26F WCI  26
SALEM*         CLOUDY    34  20  56 SE6       30.27F WCI  29
METROPOLIS*    CLOUDY    37  18  46 CALM      30.32F
$$

ILZ067-068-072-073-078-083-087-091-110600-
SOUTHEAST ILLINOIS

CITY           SKY/WX    TMP DP  RH WIND       PRES   REMARKS
LAWRENCEVILLE  CLOUDY    31  20  63 SE5       30.34S WCI  26
FLORA*         CLOUDY    33  22  64 SE9       30.31S WCI  25
FAIRFIELD*     CLOUDY    32  22  64 S3        30.30S
HARRISBURG*    CLOUDY    34  25  69 S3        30.33R
ROBINSON*      CLOUDY    30  20  66 E5        30.35S WCI  25
CARMI*         CLOUDY    32  24  72 SE6       30.32S WCI  26
$$

ABBREVIATIONS USED IN REMARKS
   TC - TEMPERATURE IN CELSIUS
  WCI - WIND CHILL INDEX
   HX - HEAT INDEX
  VSB - VISIBILITY
$$




USA.gov is the U.S. government's official web portal to all federal, state and local government web resources and services.